Location: Misciano
(43.5000°N, 11.9500°E)
Time: 21:50:38
(UTC+00:00)

ATLAS 5 CENTAUR R/B - Pass Details

Date: 13 August 2020
Orbit: 533 x 1125 km, 63.4° (Epoch: 19 September)

Event Time Altitude Azimuth Distance (km) Brightness Sun altitude
Rises 19:09:57 0° 315° (NW) 3,373 7.1 -9.3°
Reaches altitude 10° 19:12:26 10° 307° (NW) 2,527 6.3 -9.7°
Maximum altitude 19:17:48 36° 243° (WSW) 1,476 3.8 -10.6°
Drops below altitude 10° 19:23:52 10° 179° (S) 2,854 4.6 -11.5°
Sets 19:26:51 0° 172° (S) 3,865 5.2 -11.9°
Enters shadow 19:26:58 - 172° (S) 3,902 5.3 -12.0°
